Flag for India Weather past 2 weeks in Varanasi, Uttar Pradesh, India

Now
82 °F

Haze.


Feels Like: 85 °F
Forecast: 78 / 98 °F
Wind: 10 mph from Northeast

Location: Varanasi / Babatpur

Current Time: Apr 26, 2015 at 11:23:58 PM

Latest Report: Apr 26, 2015 at 10:00 PM


Visibility: 2 mi

Pressure: 29.80 "Hg

Humidity: 62%

Dew point: 68 °F

Location of VaranasiLocation

Historic Weather in Varanasi — Graph

°F

Varanasi temperature yesterday

Maximum temperature yesterday: 91 °F (at 3:00 PM)
Minimum temperature yesterday: 73 °F (at 4:00 AM)
Average temperature yesterday: 81 °F

Past Weeks' High & Low Weather Summary

 TemperatureHumidityPressure
High104 °F (Apr 19, 1:00 PM)100% (Apr 12, 11:00 PM)30.12 "Hg (Apr 12, 11:00 PM)
Low70 °F (Apr 15, 12:00 AM)18% (Apr 23, 12:00 PM)29.53 "Hg (Apr 18, 4:00 PM)
Average85 °F55%29.78 "Hg
* Reported Apr 11 10:00 PM — Apr 26 10:00 PM, Varanasi, Weather by CustomWeather, © 2015

Note: Actual official high and low records may vary slightly from our data, if they occured in-between our weather recording intervals... More about our weather records

Advertising

Varanasi weather history for previous 24 hours

 ConditionsComfort  
Time TempWeatherWind HumidityBarometerVisibility
10:00 PM
Sun, Apr 26
82 °FHaze.10 mph62%29.80 "Hg2 mi
9:00 PM82 °FHaze.7 mph62%29.80 "Hg2 mi
8:00 PM84 °FHaze.7 mph58%29.77 "Hg2 mi
7:00 PM86 °FHaze.6 mph55%29.74 "Hg2 mi
6:00 PM90 °FHaze.9 mph46%29.74 "Hg2 mi
5:00 PM91 °FHaze.7 mph46%29.74 "Hg2 mi
4:00 PM95 °FHaze.8 mph36%29.74 "Hg3 mi
3:00 PM95 °FHaze.7 mph36%29.77 "Hg3 mi
2:00 PM95 °FHaze.8 mph39%29.80 "Hg3 mi
1:00 PM91 °FScattered clouds.5 mph46%29.83 "Hg3 mi
11:00 AM86 °FHaze.12 mph55%29.89 "Hg2 mi
9:00 AM81 °FHaze.15 mph70%29.89 "Hg2 mi
6:00 AM73 °FHaze.5 mph78%29.86 "Hg2 mi
5:00 AM73 °FHaze.2 mph78%29.86 "Hg2 mi
4:00 AM73 °FHaze.No wind74%29.83 "Hg2 mi
12:00 AM77 °FHaze.10 mph69%29.83 "Hg2 mi
11:00 PM
Sat, Apr 25
77 °FHaze.10 mph69%29.83 "Hg2 mi
Weather by CustomWeather, © 2015

See weather overviewHow to use our weather pages